TimePST,TemperatureF,Dew PointF,Humidity,Sea Level PressureIn,VisibilityMPH,Wind Direction,Wind SpeedMPH,Gust SpeedMPH,PrecipitationIn,Events,Conditions,WindDirDegrees,DateUTC
12:53 AM,48.0,36.0,63,30.16,10.0,Calm,Calm,-,N/A,,Clear,0,2013-02-14 08:53:00
1:53 AM,46.0,36.0,68,30.15,10.0,NNE,3.5,-,N/A,,Clear,20,2013-02-14 09:53:00
2:53 AM,46.0,36.0,68,30.13,10.0,NE,4.6,-,N/A,,Clear,40,2013-02-14 10:53:00
3:53 AM,45.0,35.1,68,30.13,10.0,Calm,Calm,-,N/A,,Clear,0,2013-02-14 11:53:00
4:53 AM,42.1,35.1,76,30.14,10.0,Calm,Calm,-,N/A,,Clear,0,2013-02-14 12:53:00
5:53 AM,45.0,35.1,68,30.14,10.0,Calm,Calm,-,N/A,,Clear,0,2013-02-14 13:53:00
6:53 AM,44.1,35.1,71,30.14,10.0,Calm,Calm,-,N/A,,Clear,0,2013-02-14 14:53:00
7:53 AM,48.9,36.0,61,30.15,10.0,ESE,3.5,-,N/A,,Clear,110,2013-02-14 15:53:00
8:53 AM,55.0,36.0,49,30.15,10.0,Calm,Calm,-,N/A,,Partly Cloudy,0,2013-02-14 16:53:00
9:53 AM,60.1,36.0,41,30.17,10.0,WSW,5.8,-,N/A,,Partly Cloudy,240,2013-02-14 17:53:00
10:53 AM,68.0,36.0,31,30.16,10.0,WNW,6.9,-,N/A,,Clear,300,2013-02-14 18:53:00
11:53 AM,73.0,30.0,20,30.12,10.0,NE,8.1,-,N/A,,Partly Cloudy,40,2013-02-14 19:53:00
12:53 PM,77.0,26.1,15,30.06,10.0,NNE,12.7,25.3,N/A,,Partly Cloudy,30,2013-02-14 20:53:00
1:00 PM,77.0,24.8,14,30.08,10.0,ENE,17.3,24.2,N/A,,Partly Cloudy,60,2013-02-14 21:00:00
1:53 PM,75.9,28.0,17,30.04,10.0,WNW,8.1,-,N/A,,Partly Cloudy,290,2013-02-14 21:53:00
2:53 PM,77.0,21.9,13,30.04,10.0,ENE,17.3,24.2,N/A,,Partly Cloudy,60,2013-02-14 22:53:00
3:53 PM,75.9,21.0,13,30.04,10.0,ENE,13.8,27.6,N/A,,Partly Cloudy,60,2013-02-14 23:53:00
4:53 PM,73.9,19.9,13,30.05,10.0,NE,15.0,25.3,N/A,,Partly Cloudy,40,2013-02-15 00:53:00
5:53 PM,71.1,19.0,14,30.08,10.0,NE,15.0,24.2,N/A,,Partly Cloudy,50,2013-02-15 01:53:00
6:53 PM,69.1,19.9,15,30.11,10.0,ENE,12.7,20.7,N/A,,Partly Cloudy,60,2013-02-15 02:53:00
7:53 PM,64.0,32.0,30,30.13,10.0,Variable,6.9,-,N/A,,Partly Cloudy,0,2013-02-15 03:53:00
8:53 PM,69.1,21.0,16,30.13,10.0,NE,16.1,23.0,N/A,,Partly Cloudy,50,2013-02-15 04:53:00
9:53 PM,66.0,23.0,20,30.15,10.0,NE,8.1,-,N/A,,Partly Cloudy,50,2013-02-15 05:53:00
10:53 PM,64.0,24.1,22,30.14,10.0,East,5.8,-,N/A,,Partly Cloudy,80,2013-02-15 06:53:00
11:53 PM,66.9,21.9,18,30.12,10.0,NE,13.8,19.6,N/A,,Partly Cloudy,50,2013-02-15 07:53:00